Flag for Azerbaijan Weather past 2 weeks in Sumqayit, Azerbaijan

Now
64 °F

Clear.


Feels Like: 64 °F
Forecast: 65 / 80 °F
Wind: 3 mph from West

Location: Baku / Bine Airport

Current Time: May 26, 2015 at 5:05:41 AM

Latest Report: May 26, 2015 at 4:30 AM


Visibility: 10 mi

Pressure: 29.77 "Hg

Humidity: 78%

Dew point: 57 °F

Location of SumqayitLocation

Historic Weather in Sumqayit — Graph

°F

Sumqayit temperature yesterday

Maximum temperature yesterday: 81 °F (at 2:00 PM)
Minimum temperature yesterday: 61 °F (at 3:00 AM)
Average temperature yesterday: 71 °F

Past Weeks' High & Low Weather Summary

 TemperatureHumidityPressure
High84 °F (May 24, 4:00 PM)100% (May 14, 4:00 AM)30.12 "Hg (May 14, 4:00 AM)
Low52 °F (May 14, 4:00 AM)23% (May 24, 2:00 PM)29.80 "Hg (May 26, 3:00 AM)
Average66 °F66%30.00 "Hg
* Reported May 11 4:00 AM — May 26 4:00 AM, Sumqayit, Weather by CustomWeather, © 2015

Note: Actual official high and low records may vary slightly from our data, if they occured in-between our weather recording intervals... More about our weather records

Advertising

Sumqayit weather history for previous 24 hours

 ConditionsComfort  
Time TempWeatherWind HumidityBarometerVisibility
4:00 AM
Tue, May 26
64 °FClear.2 mph78%29.80 "Hg10 mi
3:30 AM64 °FClear.6 mph83%29.80 "Hg10 mi
3:00 AM66 °FClear.7 mph78%29.80 "Hg10 mi
2:30 AM68 °FClear.6 mph60%29.83 "Hg10 mi
2:00 AM68 °FClear.7 mph60%29.83 "Hg10 mi
1:30 AM64 °FClear.6 mph56%29.83 "Hg10 mi
1:00 AM64 °FClear.2 mph52%29.83 "Hg10 mi
12:30 AM66 °FClear.3 mph49%29.83 "Hg10 mi
12:00 AM68 °FClear.No wind49%29.83 "Hg10 mi
11:30 PM
Mon, May 25
68 °FClear.5 mph49%29.83 "Hg10 mi
11:00 PM68 °FClear.2 mph49%29.83 "Hg10 mi
10:30 PM68 °FClear.8 mph60%29.86 "Hg10 mi
10:00 PM66 °FClear.8 mph68%29.86 "Hg10 mi
9:30 PM68 °FSunny.7 mph60%29.86 "Hg10 mi
9:00 PM70 °FSunny.9 mph50%29.86 "Hg10 mi
8:30 PM75 °FSunny.13 mph25%29.86 "Hg10 mi
8:00 PM77 °FSunny.16 mph26%29.83 "Hg10 mi
7:30 PM77 °FSunny.15 mph26%29.83 "Hg10 mi
7:00 PM77 °FClear.16 mph28%29.83 "Hg5 mi
6:30 PM79 °FScattered clouds.16 mph32%29.83 "Hg5 mi
6:00 PM79 °FClear.15 mph32%29.83 "Hg5 mi
5:30 PM79 °FClear.15 mph32%29.83 "Hg5 mi
5:00 PM81 °FScattered clouds.12 mph32%29.83 "Hg5 mi
4:30 PM77 °FBroken clouds.13 mph44%29.83 "Hg5 mi
4:00 PM79 °FBroken clouds.16 mph37%29.83 "Hg4 mi
3:30 PM77 °FBroken clouds.14 mph44%29.83 "Hg4 mi
3:00 PM77 °FBroken clouds.14 mph34%29.86 "Hg4 mi
2:30 PM79 °FBroken clouds.14 mph34%29.86 "Hg4 mi
2:00 PM81 °FBroken clouds.12 mph32%29.86 "Hg4 mi
1:30 PM79 °FClear.14 mph32%29.86 "Hg4 mi
1:00 PM79 °FClear.15 mph32%29.89 "Hg4 mi
12:30 PM79 °FClear.15 mph30%29.89 "Hg5 mi
12:00 PM79 °FClear.15 mph30%29.89 "Hg5 mi
11:30 AM77 °FClear.16 mph32%29.89 "Hg4 mi
11:00 AM77 °FClear.16 mph30%29.89 "Hg4 mi
10:30 AM77 °FClear.15 mph34%29.89 "Hg4 mi
10:00 AM77 °FClear.13 mph36%29.89 "Hg4 mi
9:30 AM73 °FSunny.9 mph53%29.89 "Hg10 mi
9:00 AM70 °FScattered clouds.9 mph69%29.89 "HgN/A
8:30 AM68 °FPartly sunny.9 mph73%29.89 "HgN/A
8:00 AM64 °FPartly sunny.3 mph73%29.89 "HgN/A
7:30 AM64 °FPartly sunny.5 mph68%29.89 "HgN/A
7:00 AM64 °FClear.5 mph64%29.86 "Hg10 mi
6:30 AM63 °FClear.2 mph68%29.86 "Hg10 mi
6:00 AM64 °FClear.3 mph64%29.86 "Hg10 mi
5:30 AM63 °FClear.3 mph64%29.86 "Hg10 mi
5:00 AM61 °FClear.No wind68%29.89 "Hg10 mi
Weather by CustomWeather, © 2015

See weather overviewHow to use our weather pages